Aitkin, MN

1:52 AM CST on February 22, 2017 (GMT -0600)
Aitkin Municipal / Steve Kurtz Field

Weather History for KAIT - October, 2012

Change the Weather History Date:

Saturday, October 20, 2012

  Actual Average Record
Temperature  
Mean Temperature 40 °F -  
Max Temperature 53 °F 54 °F 77 °F (1978)
Min Temperature 28 °F 32 °F 12 °F (1972)
Degree Days  
Heating Degree Days 24    
Moisture  
Dew Point 33 °F    
Average Humidity 73    
Maximum Humidity 86    
Minimum Humidity 54    
Precipitation  
Precipitation 0.00 in - - ()
Sea Level Pressure  
Sea Level Pressure 29.74 in    
Wind  
Wind Speed 2 mph (South)    
Max Wind Speed 12 mph    
Max Gust Speed 16 mph    
Visibility 10 miles    
Events      
Averages and records for this station are not official NWS values.
T = Trace of Precipitation, MM = Missing Value Source: NWS Daily Summary

Daily Weather History Graph

Daily Weather History Graph

Search for Another Location

Airport or City:

Trip Planner

Search our weather history database for the weather conditions in past years. The results will help you decide how hot, cold, wet, or windy it might be!

Date:

Astronomy

Oct. 20, 2012 Rise Set
Actual Time 7:39 AM CDT 6:18 PM CDT
Civil Twilight 7:09 AM CDT 6:48 PM CDT
Nautical Twilight 6:34 AM CDT 7:23 PM CDT
Astronomical Twilight 5:59 AM CDT 7:58 PM CDT
Moon 1:26 PM CDT (10/20) 10:55 PM CDT (10/20)
Length of Visible Light 11h 39m
Length of Day
10h 38m
Waxing Crescent, 34% of the Moon is Illuminated
Oct 20
Waxing Crescent
Oct 21
First Quarter
Oct 29
Full
Nov 6
Last Quarter
Nov 13
New

Hourly Weather History & Observations

Time (CDT) Temp. Windchill Dew Point Humidity Pressure Visibility Wind Dir Wind Speed Gust Speed Precip Events Conditions
12:13 AM 33.8 °F - 26.6 °F 75% 29.71 in 10.0 mi Calm Calm - N/A   Scattered Clouds
12:32 AM 32.0 °F - 26.6 °F 80% 29.71 in 10.0 mi Calm Calm - N/A   Clear
12:53 AM 30.2 °F - 24.8 °F 80% 29.72 in 10.0 mi Calm Calm - N/A   Clear
1:13 AM 30.2 °F - 24.8 °F 80% 29.72 in 10.0 mi Calm Calm - N/A   Clear
1:32 AM 30.2 °F - 24.8 °F 80% 29.73 in 5.0 mi Calm Calm - N/A   Haze
1:53 AM 30.2 °F - 26.6 °F 86% 29.72 in 10.0 mi Calm Calm - N/A   Mostly Cloudy
2:13 AM 30.2 °F - 26.6 °F 86% 29.72 in 10.0 mi Calm Calm - N/A   Mostly Cloudy
2:32 AM 30.2 °F 26.7 °F 24.8 °F 80% 29.72 in 10.0 mi ENE 3.5 mph - N/A   Scattered Clouds
2:53 AM 30.2 °F - 24.8 °F 80% 29.73 in 5.0 mi Calm Calm - N/A   Haze
3:13 AM 30.2 °F - 24.8 °F 80% 29.73 in 10.0 mi Calm Calm - N/A   Clear
3:32 AM 30.2 °F - 24.8 °F 80% 29.73 in 5.0 mi Calm Calm - N/A   Haze
3:53 AM 28.4 °F - 24.8 °F 86% 29.74 in 5.0 mi Calm Calm - N/A   Haze
4:12 AM 28.4 °F - 24.8 °F 86% 29.73 in 10.0 mi Calm Calm - N/A   Clear
4:33 AM 28.4 °F - 24.8 °F 86% 29.74 in 10.0 mi Calm Calm - N/A   Scattered Clouds
4:53 AM 28.4 °F - 24.8 °F 86% 29.74 in 10.0 mi Calm Calm - N/A   Clear
5:12 AM 28.4 °F - 23.0 °F 80% 29.74 in 10.0 mi Calm Calm - N/A   Scattered Clouds
5:33 AM 28.4 °F - 23.0 °F 80% 29.73 in 10.0 mi Calm Calm - N/A   Mostly Cloudy
5:53 AM 28.4 °F - 24.8 °F 86% 29.73 in 10.0 mi Calm Calm - N/A   Mostly Cloudy
6:12 AM 30.2 °F - 24.8 °F 80% 29.74 in 10.0 mi Calm Calm - N/A   Overcast
6:33 AM 32.0 °F - 26.6 °F 80% 29.74 in 10.0 mi Calm Calm - N/A   Overcast
6:53 AM 33.8 °F - 26.6 °F 75% 29.74 in 10.0 mi Calm Calm - N/A   Overcast
7:12 AM 32.0 °F - 26.6 °F 80% 29.74 in 10.0 mi Calm Calm - N/A   Scattered Clouds
7:33 AM 32.0 °F - 26.6 °F 80% 29.75 in 10.0 mi Calm Calm - N/A   Scattered Clouds
7:52 AM 33.8 °F - 28.4 °F 81% 29.75 in 10.0 mi Calm Calm - N/A   Overcast
8:13 AM 33.8 °F - 28.4 °F 81% 29.75 in 10.0 mi Calm Calm - N/A   Overcast
8:33 AM 35.6 °F - 30.2 °F 81% 29.75 in 10.0 mi Calm Calm - N/A   Overcast
8:52 AM 39.2 °F - 33.8 °F 81% 29.75 in 10.0 mi Calm Calm - N/A   Scattered Clouds
9:13 AM 44.6 °F 42.2 °F 39.2 °F 81% 29.75 in 10.0 mi SSE 4.6 mph - N/A   Scattered Clouds
9:33 AM 46.4 °F 44.3 °F 39.2 °F 76% 29.76 in 10.0 mi South 4.6 mph - N/A   Overcast
9:52 AM 46.4 °F 43.5 °F 37.4 °F 71% 29.76 in 10.0 mi South 5.8 mph - N/A   Overcast
10:13 AM 46.4 °F 44.3 °F 39.2 °F 76% 29.76 in 10.0 mi SSE 4.6 mph - N/A   Overcast
10:33 AM 48.2 °F - 39.2 °F 71% 29.75 in 10.0 mi SSE 5.8 mph - N/A   Overcast
10:52 AM 48.2 °F - 39.2 °F 71% 29.75 in 10.0 mi South 4.6 mph - N/A   Overcast
11:13 AM 50.0 °F - 39.2 °F 66% 29.75 in 10.0 mi South 8.1 mph - N/A   Overcast
11:33 AM 50.0 °F - 37.4 °F 62% 29.75 in 10.0 mi South 8.1 mph - N/A   Overcast
11:52 AM 50.0 °F - 37.4 °F 62% 29.76 in 10.0 mi South 8.1 mph - N/A   Overcast
12:12 PM 50.0 °F - 37.4 °F 62% 29.77 in 10.0 mi SSW 9.2 mph - N/A   Overcast
12:33 PM 50.0 °F - 37.4 °F 62% 29.77 in 10.0 mi South 9.2 mph - N/A   Overcast
12:52 PM 51.8 °F - 37.4 °F 58% 29.74 in 10.0 mi SSE 8.1 mph - N/A   Overcast
1:12 PM 51.8 °F - 37.4 °F 58% 29.73 in 10.0 mi South 8.1 mph - N/A   Overcast
1:33 PM 53.6 °F - 37.4 °F 54% 29.73 in 10.0 mi South 11.5 mph - N/A   Overcast
1:52 PM 51.8 °F - 37.4 °F 58% 29.73 in 10.0 mi South 9.2 mph - N/A   Unknown
2:12 PM 53.6 °F - 37.4 °F 54% 29.73 in 10.0 mi South 8.1 mph 16.1 mph N/A   Overcast
2:33 PM 53.6 °F - 37.4 °F 54% 29.73 in 10.0 mi SSE 10.4 mph - N/A   Overcast
2:52 PM 53.6 °F - 37.4 °F 54% 29.72 in 10.0 mi SSE 8.1 mph - N/A   Mostly Cloudy
3:12 PM 53.6 °F - 37.4 °F 54% 29.73 in 10.0 mi SE 8.1 mph 16.1 mph N/A   Scattered Clouds
3:33 PM 53.6 °F - 37.4 °F 54% 29.73 in 10.0 mi SSE 8.1 mph - N/A   Mostly Cloudy
4:12 PM 53.6 °F - 37.4 °F 54% 29.73 in 10.0 mi SSE 8.1 mph - N/A   Overcast
4:33 PM 53.6 °F - 39.2 °F 58% 29.73 in 10.0 mi SSE 6.9 mph - N/A   Overcast
4:52 PM 53.6 °F - 39.2 °F 58% 29.73 in 10.0 mi SSE 10.4 mph - N/A   Overcast
5:12 PM 53.6 °F - 39.2 °F 58% 29.72 in 10.0 mi South 9.2 mph - N/A   Overcast
5:33 PM 51.8 °F - 39.2 °F 62% 29.74 in 10.0 mi SSW 9.2 mph - N/A   Scattered Clouds
5:52 PM 50.0 °F - 39.2 °F 66% 29.74 in 10.0 mi SSW 6.9 mph - N/A   Clear
6:13 PM 48.2 °F - 37.4 °F 66% 29.74 in 10.0 mi South 5.8 mph - N/A   Clear
6:33 PM 46.4 °F 45.2 °F 37.4 °F 71% 29.73 in 10.0 mi SSE 3.5 mph - N/A   Clear
6:52 PM 44.6 °F - 37.4 °F 76% 29.74 in 10.0 mi Calm Calm - N/A   Clear
7:13 PM 39.2 °F - 33.8 °F 81% 29.74 in 10.0 mi Calm Calm - N/A   Clear
7:33 PM 39.2 °F - 33.8 °F 81% 29.75 in 10.0 mi Calm Calm - N/A   Clear
8:13 PM 42.8 °F 41.1 °F 35.6 °F 76% 29.75 in 10.0 mi South 3.5 mph - N/A   Mostly Cloudy
8:33 PM 44.6 °F - 37.4 °F 76% 29.75 in 10.0 mi Calm Calm - N/A   Overcast
8:52 PM 42.8 °F - 37.4 °F 81% 29.75 in 10.0 mi Calm Calm - N/A   Scattered Clouds
9:13 PM 46.4 °F 42.4 °F 39.2 °F 76% 29.74 in 10.0 mi South 8.1 mph - N/A   Clear
9:32 PM 46.4 °F 45.2 °F 39.2 °F 76% 29.74 in 10.0 mi South 3.5 mph - N/A   Clear
9:53 PM 46.4 °F 43.5 °F 39.2 °F 76% 29.75 in 10.0 mi SSW 5.8 mph - N/A   Clear
10:13 PM 46.4 °F 45.2 °F 39.2 °F 76% 29.76 in 7.0 mi South 3.5 mph - N/A   Clear
10:32 PM 44.6 °F 43.1 °F 37.4 °F 76% 29.75 in 7.0 mi South 3.5 mph - N/A   Clear
10:53 PM 44.6 °F - 37.4 °F 76% 29.76 in 7.0 mi Calm Calm - N/A   Clear
11:32 PM 44.6 °F 42.2 °F 37.4 °F 76% 29.77 in 7.0 mi South 4.6 mph - N/A   Scattered Clouds
11:53 PM 46.4 °F 45.2 °F 39.2 °F 76% 29.78 in 10.0 mi South 3.5 mph - N/A   Mostly Cloudy